Regional Weather Roundup
Issued by NWS Columbia, SC

Home | Current Version | Previous Version | Text Only | Print | Product List | Glossary On
Versions: 1 2 3 4 5 6 7 8 9 10 11 12 13 14 15 16 17 18 19 20 21 22 23 24 25 26 27 28 29 30 31 32 33 34 35 36 37 38 39 40 41 42 43 44 45 46 47 48 49 50
000
ASUS42 KCAE 270910
RWRCAE
REGIONAL WEATHER ROUNDUP
NATIONAL WEATHER SERVICE COLUMBIA SC
400 AM EST SAT DEC 27 2014

NOTE: "FAIR" INDICATES FEW OR NO CLOUDS BELOW 12,000 FEET WITH NO
SIGNIFICANT WEATHER AND/OR OBSTRUCTIONS TO VISIBILITY.

NOT ALL STATIONS ARE QUALITY CONTROLLED BY THE NATIONAL
WEATHER SERVICE. USE DATA WITH CAUTION...ESPECIALLY
DEWPOINT OBSERVATIONS.

SCZ001>056-GAZ040-063>065-077-271000-
...UPSTATE SOUTH CAROLINA...

CITY           SKY/WX    TMP DP  RH WIND       PRES   REMARKS
ANDERSON       CLEAR     35  32  88 CALM      30.28F
LIBERTY        FAIR      32  30  92 MISG      30.27F
SPARTANBURG    FAIR      37  37 100 CALM      30.27F
CLEMSON        CLEAR     43  38  82 CALM      30.29F
GREENVILLE     PTCLDY    41  33  73 CALM      30.27F
GREENWOOD      PTCLDY    31  29  92 CALM      30.31F
GREER          PTCLDY    40  36  86 CALM      30.25F
ROCK HILL      PTCLDY    31  30  96 CALM      30.30S
CHESTER        FAIR      37  36  93 CALM      30.30S
LAURENS        FAIR      36  36 100 CALM      30.29F


...CENTRAL SOUTH CAROLINA...

CITY           SKY/WX    TMP DP  RH WIND       PRES   REMARKS
COLUMBIA APT   CLEAR     32  28  85 W3        30.30S
COLUMBIA OWENS PTCLDY    35  32  88 CALM      30.31F
DARLINGTON     CLEAR     34  28  80 NW3       30.32S
FLORENCE       CLEAR     36  33  89 CALM      30.31R
MCENTIRE ANGB  CLEAR     32  31  99 NW1       30.30F
ORANGEBURG     CLEAR     36  33  89 CALM      30.29F
SUMTER SHAW    PTCLDY    33  31  91 CALM      30.28F
NEWBERRY       FAIR      32 N/A N/A CALM      30.33S
AIKEN          FAIR      32  32 100 CALM      30.32F
BARNWELL         N/A     34  32  93 CALM      30.29S
MANNING        FAIR      34 N/A N/A CALM      30.29F
CAMDEN         FAIR      32  28  86 CALM      30.31F
LANCASTER      HVY RAIN  32  32 100 CALM      30.31S
WINNSBORO      FAIR      37  36  93 CALM      30.29F


...EASTERN AND COASTAL SOUTH CAROLINA...

CITY           SKY/WX    TMP DP  RH WIND       PRES   REMARKS
MYRTLE BEACH   CLEAR     39  36  87 CALM      30.29F
N MYRTLE BCH   CLEAR     36  35  96 CALM      30.29S FOG
CONWAY           N/A     32  32 100 CALM      30.30S FOG
MARION         FAIR      34  34 100 CALM      30.31S FOG
HARTSVILLE     FAIR      37  37 100 CALM      30.30F
FLORENCE       CLEAR     36  33  89 CALM      30.31R
DARLINGTON     CLEAR     34  28  80 NW3       30.32S
CHARLESTON APT CLEAR     41  40  96 CALM      30.28F
MOUNT PLEASANT FAIR      41  41 100 CALM      30.28F
WALTERBORO     SUNNY     36 N/A N/A CALM      30.30S
BEAUFORT       CLEAR     44  42  93 N5        30.28S


...EASTERN GEORGIA...

CITY           SKY/WX    TMP DP  RH WIND       PRES   REMARKS
AUGUSTA BUSH F CLEAR     31  29  92 NW3       30.31S
AUGUSTA DANIEL CLEAR     42  37  82 N6        30.30S
THOMSON        CLEAR     32  32 100 CALM      30.34F
WASHINGTON     FAIR      36  36 100 CALM      30.29F
CLAXTON        FAIR      37  37 100 CALM      30.27F
SYLVANIA       SUNNY     37  37 100 CALM      30.28F
STATESBORO     CLEAR     36  36 100 CALM      30.27F
SAVANNAH       CLEAR     42  40  92 N3        30.27F


...SOUTHERN NORTH CAROLINA...

CITY           SKY/WX    TMP DP  RH WIND       PRES   REMARKS
CHARLOTTE      MOCLDY    36  33  89 CALM      30.30R
MONROE         PTCLDY    32  29  88 SW3       30.29R
WADESBORO      PTSUNNY   30  29  95 CALM      30.31R FOG
ROCKINGHAM     SUNNY     31  31  98 CALM      30.30R
RUTHERFORDTON  PTCLDY    35  34  95 CALM      30.29F
ASHEVILLE      MOCLDY    36  32  85 CALM      30.28F

$$


USA.gov is the U.S. government's official web portal to all federal, state and local government web resources and services.